Location: Barcelona
(41.3830°N, 2.1830°E)
Time: 21:15:33
(UTC+01:00)

ISS - Pass Details

Date: 25 February 2021
Orbit: 417 x 422 km, 51.6° (Epoch: 26 February)

Event Time Altitude Azimuth Distance (km) Brightness Sun altitude
Exits shadow 06:23:12 22° 303° (WNW) 981 -2.4 -13.6°
Maximum altitude 06:24:21 27° 337° (NNW) 851 -2.4 -13.4°
Drops below altitude 10° 06:27:16 10° 37° (NE) 1,499 -0.4 -12.9°
Sets 06:29:35 0° 51° (NE) 2,365 0.9 -12.4°
